TimeEST,TemperatureF,Dew PointF,Humidity,Sea Level PressureIn,VisibilityMPH,Wind Direction,Wind SpeedMPH,Gust SpeedMPH,PrecipitationIn,Events,Conditions,WindDirDegrees,DateUTC
12:15 AM,24.8,14.0,64,30.41,10.0,South,4.6,-,N/A,,Clear,170,2013-11-14 05:15:00
12:35 AM,24.8,14.0,64,30.40,10.0,SSW,4.6,-,N/A,,Clear,210,2013-11-14 05:35:00
12:55 AM,21.2,14.0,74,30.40,10.0,Calm,Calm,-,N/A,,Clear,0,2013-11-14 05:55:00
1:15 AM,24.8,14.0,64,30.39,10.0,Calm,Calm,-,N/A,,Clear,0,2013-11-14 06:15:00
1:35 AM,21.2,15.8,80,30.39,10.0,South,3.5,-,N/A,,Clear,190,2013-11-14 06:35:00
1:55 AM,23.0,15.8,74,30.39,10.0,SW,3.5,-,N/A,,Clear,220,2013-11-14 06:55:00
2:15 AM,21.2,12.2,68,30.38,10.0,SSW,3.5,-,N/A,,Clear,210,2013-11-14 07:15:00
2:35 AM,21.2,14.0,74,30.37,10.0,SW,3.5,-,N/A,,Clear,220,2013-11-14 07:35:00
2:55 AM,21.2,14.0,74,30.36,10.0,Calm,Calm,-,N/A,,Clear,0,2013-11-14 07:55:00
3:15 AM,23.0,15.8,74,30.36,10.0,Calm,Calm,-,N/A,,Clear,0,2013-11-14 08:15:00
3:35 AM,21.2,14.0,74,30.36,10.0,Calm,Calm,-,N/A,,Clear,0,2013-11-14 08:35:00
3:55 AM,19.4,14.0,80,30.36,10.0,Calm,Calm,-,N/A,,Clear,0,2013-11-14 08:55:00
4:15 AM,23.0,15.8,74,30.36,10.0,SW,3.5,-,N/A,,Clear,230,2013-11-14 09:15:00
4:35 AM,21.2,15.8,80,30.36,10.0,Calm,Calm,-,N/A,,Clear,0,2013-11-14 09:35:00
4:55 AM,21.2,14.0,74,30.35,10.0,Calm,Calm,-,N/A,,Clear,0,2013-11-14 09:55:00
5:15 AM,19.4,14.0,80,30.35,10.0,South,3.5,-,N/A,,Clear,180,2013-11-14 10:15:00
5:35 AM,21.2,15.8,80,30.35,10.0,Calm,Calm,-,N/A,,Clear,0,2013-11-14 10:35:00
5:55 AM,24.8,15.8,69,30.36,10.0,South,3.5,-,N/A,,Clear,190,2013-11-14 10:55:00
6:15 AM,26.6,14.0,59,30.36,10.0,SW,3.5,-,N/A,,Clear,220,2013-11-14 11:15:00
6:35 AM,28.4,14.0,55,30.36,10.0,SW,4.6,-,N/A,,Clear,220,2013-11-14 11:35:00
6:55 AM,26.6,15.8,64,30.36,10.0,SSW,5.8,-,N/A,,Clear,210,2013-11-14 11:55:00
7:15 AM,24.8,15.8,69,30.36,10.0,SSW,4.6,-,N/A,,Clear,210,2013-11-14 12:15:00
7:35 AM,26.6,17.6,69,30.36,10.0,SSW,6.9,-,N/A,,Clear,200,2013-11-14 12:35:00
7:55 AM,30.2,17.6,60,30.36,10.0,SSW,6.9,-,N/A,,Clear,210,2013-11-14 12:55:00
8:15 AM,33.8,17.6,52,30.36,10.0,SW,8.1,-,N/A,,Clear,220,2013-11-14 13:15:00
8:35 AM,35.6,17.6,48,30.37,10.0,SSW,5.8,-,N/A,,Clear,200,2013-11-14 13:35:00
8:55 AM,39.2,15.8,39,30.37,10.0,SW,6.9,-,N/A,,Clear,220,2013-11-14 13:55:00
9:15 AM,41.0,14.0,33,30.37,10.0,SSW,5.8,-,N/A,,Clear,210,2013-11-14 14:15:00
9:35 AM,44.6,12.2,27,30.37,10.0,South,5.8,-,N/A,,Clear,190,2013-11-14 14:35:00
9:55 AM,46.4,10.4,23,30.37,10.0,SSW,6.9,-,N/A,,Clear,200,2013-11-14 14:55:00
10:15 AM,48.2,10.4,22,30.37,10.0,SSW,5.8,-,N/A,,Clear,210,2013-11-14 15:15:00
10:35 AM,51.8,8.6,18,30.36,10.0,SSW,5.8,-,N/A,,Clear,210,2013-11-14 15:35:00
10:55 AM,55.4,1.4,11,30.35,10.0,SW,9.2,-,N/A,,Clear,220,2013-11-14 15:55:00
11:15 AM,55.4,-7.6,7,30.35,10.0,SSW,10.4,16.1,N/A,,Clear,210,2013-11-14 16:15:00
11:35 AM,55.4,-7.6,7,30.34,10.0,WSW,8.1,-,N/A,,Clear,240,2013-11-14 16:35:00
11:55 AM,57.2,-5.8,8,30.32,10.0,SW,10.4,-,N/A,,Clear,220,2013-11-14 16:55:00
12:15 PM,59.0,-4.0,8,30.31,10.0,South,9.2,-,N/A,,Clear,190,2013-11-14 17:15:00
12:35 PM,60.8,-5.8,7,30.31,10.0,SSW,10.4,-,N/A,,Clear,210,2013-11-14 17:35:00
12:55 PM,60.8,-7.6,6,30.30,10.0,SSW,10.4,-,N/A,,Clear,200,2013-11-14 17:55:00
1:15 PM,60.8,-7.6,6,30.29,10.0,SSW,9.2,-,N/A,,Clear,210,2013-11-14 18:15:00
1:35 PM,60.8,-7.6,6,30.29,10.0,WSW,10.4,-,N/A,,Clear,240,2013-11-14 18:35:00
1:55 PM,62.6,-7.6,6,30.28,10.0,SSW,10.4,17.3,N/A,,Clear,210,2013-11-14 18:55:00
2:15 PM,62.6,-7.6,6,30.28,10.0,SSW,5.8,-,N/A,,Clear,210,2013-11-14 19:15:00
2:35 PM,62.6,-7.6,6,30.27,10.0,SSW,8.1,-,N/A,,Clear,200,2013-11-14 19:35:00
2:55 PM,62.6,-9.4,5,30.27,10.0,SSW,10.4,-,N/A,,Clear,200,2013-11-14 19:55:00
3:15 PM,62.6,-9.4,5,30.27,10.0,SSW,8.1,-,N/A,,Clear,210,2013-11-14 20:15:00
3:35 PM,62.6,-9.4,5,30.27,10.0,SSW,9.2,-,N/A,,Clear,200,2013-11-14 20:35:00
3:55 PM,62.6,-9.4,5,30.27,10.0,SW,6.9,-,N/A,,Clear,230,2013-11-14 20:55:00
4:15 PM,60.8,-9.4,6,30.27,10.0,SSW,9.2,-,N/A,,Clear,210,2013-11-14 21:15:00
4:35 PM,60.8,-9.4,6,30.27,10.0,SW,9.2,-,N/A,,Clear,220,2013-11-14 21:35:00
4:55 PM,55.4,-0.4,10,30.27,10.0,SSW,6.9,-,N/A,,Clear,200,2013-11-14 21:55:00
5:15 PM,55.4,-0.4,10,30.27,10.0,SSW,5.8,-,N/A,,Clear,200,2013-11-14 22:15:00
5:35 PM,53.6,1.4,12,30.27,10.0,SSW,5.8,-,N/A,,Clear,210,2013-11-14 22:35:00
5:55 PM,51.8,1.4,13,30.27,10.0,SSW,5.8,-,N/A,,Clear,210,2013-11-14 22:55:00
6:15 PM,51.8,1.4,13,30.27,10.0,SSW,4.6,-,N/A,,Clear,210,2013-11-14 23:15:00
6:35 PM,51.8,1.4,13,30.27,10.0,SSW,3.5,-,N/A,,Clear,200,2013-11-14 23:35:00
6:55 PM,51.8,1.4,13,30.26,10.0,Calm,Calm,-,N/A,,Clear,0,2013-11-14 23:55:00
7:15 PM,51.8,3.2,14,30.27,10.0,Calm,Calm,-,N/A,,Clear,0,2013-11-15 00:15:00
7:35 PM,46.4,6.8,20,30.27,10.0,Calm,Calm,-,N/A,,Clear,0,2013-11-15 00:35:00
7:55 PM,48.2,5.0,17,30.27,10.0,Calm,Calm,-,N/A,,Clear,0,2013-11-15 00:55:00
8:15 PM,46.4,6.8,20,30.28,10.0,SW,5.8,-,N/A,,Clear,220,2013-11-15 01:15:00
8:35 PM,42.8,10.4,27,30.28,10.0,SSW,4.6,-,N/A,,Clear,200,2013-11-15 01:35:00
8:55 PM,44.6,10.4,25,30.28,10.0,SSW,4.6,-,N/A,,Clear,200,2013-11-15 01:55:00
9:15 PM,46.4,10.4,23,30.28,10.0,SW,6.9,-,N/A,,Clear,220,2013-11-15 02:15:00
9:35 PM,46.4,12.2,25,30.28,10.0,SW,5.8,-,N/A,,Clear,220,2013-11-15 02:35:00
9:55 PM,46.4,12.2,25,30.28,10.0,SW,8.1,-,N/A,,Clear,220,2013-11-15 02:55:00
10:15 PM,46.4,12.2,25,30.28,10.0,SW,8.1,-,N/A,,Clear,220,2013-11-15 03:15:00
10:35 PM,46.4,14.0,27,30.28,10.0,SW,8.1,-,N/A,,Clear,220,2013-11-15 03:35:00
10:55 PM,44.6,14.0,29,30.28,10.0,SW,6.9,-,N/A,,Clear,230,2013-11-15 03:55:00
11:15 PM,44.6,15.8,31,30.28,10.0,SW,4.6,-,N/A,,Clear,220,2013-11-15 04:15:00
11:35 PM,44.6,15.8,31,30.27,10.0,SSW,5.8,-,N/A,,Clear,210,2013-11-15 04:35:00
11:55 PM,44.6,15.8,31,30.27,10.0,SW,5.8,-,N/A,,Clear,220,2013-11-15 04:55:00